EDDM

Munich International Airport

ICAO Code EDDM
IATA Code MUC
Name Munich International Airport
Location Munich, Bavaria, DE
Elevation 1487 Feet / 453.2 Meters
Latitude 48.35380173
Longitude 11.78610039
METAR EDDM 222320Z AUTO 21007KT CAVOK 11/10 Q1011 NOSIG
Extra information Display Charts
Runway Length Width Surface Elevation
08L 13123 ft 197 ft CON 1467 ft
08R 13123 ft 197 ft CON 1486 ft
26R 13123 ft 197 ft CON 1449 ft
26L 13123 ft 197 ft CON 1470 ft